Location: Schommer Observatory
(40.5200°N, 74.4500°W)
Time: 00:54:53
(UTC-04:00)

ISS - Pass Details

Date: 20 May 2018
Orbit: 402 x 407 km, 51.6° (Epoch: 21 May)

Event Time Altitude Azimuth Distance (km) Brightness Sun altitude
Rises 05:01:43 0° 303° (WNW) 2,317 -0.2 -6.6°
Reaches altitude 10° 05:03:49 10° 299° (WNW) 1,455 -1.3 -6.3°
Maximum altitude 05:07:01 55° 221° (SW) 490 -3.7 -5.7°
Drops below altitude 10° 05:10:11 10° 142° (SE) 1,447 -0.9 -5.2°
Sets 05:12:17 0° 138° (SE) 2,303 0.1 -4.9°
